Regional Weather Roundup
Issued by NWS

Home | Current Version | Previous Version | Text Only | Print | Product List | Glossary Off
Versions: 1 2 3 4 5 6 7 8 9 10 11 12 13 14 15 16 17 18 19 20 21 22 23 24 25 26 27 28 29 30 31 32 33 34 35 36 37 38 39 40 41 42 43 44 45 46 47 48 49 50

731
ASUS43 KOAX 220310
RWRNE

WEATHER ROUNDUP FOR NEBRASKA
NATIONAL WEATHER SERVICE OMAHA NE
900 PM CST TUE NOV 21 2017

NOTES: SATELLITE DATA IS BEING USED TO AUGMENT CLOUD COVER ABOVE
       12000 FEET.
       "FAIR" INDICATES FEW OR NO CLOUDS BELOW 12,000 FEET WITH NO
       SIGNIFICANT WEATHER AND/OR OBSTRUCTIONS TO VISIBILITY.


NEZ001>004-019>022-054>056-220400-
NEBRASKA PANHANDLE

CITY           SKY/WX    TMP DP  RH WIND       PRES   REMARKS
SCOTTSBLUFF    CLOUDY    29  22  75 E7        30.24F WCI  22
ALLIANCE       CLOUDY    26  23  88 SE6       30.26R WCI  19
CHADRON        CLOUDY    26  23  88 CALM      30.25R
GORDON         FAIR      25  18  76 CALM      30.25R
KIMBALL        CLOUDY    29  26  86 W8        30.27S WCI  22
SIDNEY         CLOUDY    23  18  81 SW8       30.27F WCI  14
$$

NEZ057>060-069>072-079>082-220400-
SOUTHWEST NEBRASKA

CITY           SKY/WX    TMP DP  RH WIND       PRES   REMARKS
NORTH PLATTE   CLOUDY    22  14  71 E3        30.33S
IMPERIAL       CLEAR     27  21  78 S5        30.31F WCI  22
LEXINGTON      CLOUDY    22  14  70 CALM      30.36R
MCCOOK         CLOUDY    30  17  58 S5        30.36R WCI  25
OGALLALA       CLEAR     25  20  80 CALM      30.30S
$$

NEZ005>010-023>029-035>040-094-220400-
NORTH CENTRAL NEBRASKA

CITY           SKY/WX    TMP DP  RH WIND       PRES   REMARKS
VALENTINE      CLEAR     16  11  80 SW6       30.30F WCI   7
AINSWORTH      CLOUDY    14  10  83 CALM      30.31F
BROKEN BOW     CLEAR     17   8  67 NW5       30.34S WCI  10
O`NEILL        CLOUDY    14  10  84 W3        30.38S
ORD            CLEAR     14   9  80 CALM      30.37S
THEDFORD       CLOUDY    20  14  76 CALM      30.31S
$$

NEZ041-046>049-061>064-073>077-083>087-220400-
SOUTH CENTRAL NEBRASKA

CITY           SKY/WX    TMP DP  RH WIND       PRES   REMARKS
GRAND ISLAND   CLOUDY    20  13  74 N3        30.39S
AURORA         CLOUDY    18  11  75 N6        30.39S WCI  10
HASTINGS       CLEAR     18   9  68 CALM      30.38S
HEBRON         PTCLDY    26  13  60 N5        30.41R WCI  20
HOLDREGE       CLOUDY    23  10  59 CALM      30.36S
KEARNEY        CLOUDY    22  10  60 NE3       30.38F
YORK           PTCLDY    19  14  79 N6        30.41R WCI  11
$$

NEZ011>018-030>034-042>045-220400-
NORTHEAST NEBRASKA

CITY           SKY/WX    TMP DP  RH WIND       PRES   REMARKS
NORFOLK        CLOUDY    18  12  77 W6        30.37S WCI  10
ALBION         CLOUDY    15   9  77 CALM      30.38R
BLAIR          CLOUDY    25  11  56 N12       30.37F WCI  14
COLUMBUS       CLOUDY    19  12  74 W7        30.41F WCI  10
FREMONT        CLOUDY    20  13  73 CALM      30.40F
TEKAMAH        CLOUDY    21   9  59 N10       30.39F WCI  10
WAYNE          PTCLDY    13   7  78 CALM      30.39R
$$

NEZ050>053-065>068-078-088>093-220400-
SOUTHEAST NEBRASKA

CITY           SKY/WX    TMP DP  RH WIND       PRES   REMARKS
LINCOLN        CLOUDY    18  11  74 NW6       30.41F WCI  10
OMAHA EPPLEY   CLOUDY    24  11  57 N8        30.41R WCI  15
BEATRICE       CLOUDY    21  13  70 CALM      30.40F
FALLS CITY     CLOUDY    26  13  57 NW10      30.40R WCI  16
NEBRASKA CITY  CLOUDY    26  14  61 N9        30.40R WCI  16
PLATTSMOUTH    CLOUDY    26  13  59 N10       30.39R WCI  15
$$

NEZ044-045-051>053-067-220400-
OMAHA AREA

CITY           SKY/WX    TMP DP  RH WIND       PRES   REMARKS
OMAHA EPPLEY   CLOUDY    24  11  57 N8        30.41R WCI  15
BLAIR          CLOUDY    25  11  56 N12       30.37F WCI  14
FREMONT        CLOUDY    20  13  73 CALM      30.40F
MILLARD        CLOUDY    27  12  54 N8        30.40F WCI  19
OFFUTT AFB     CLOUDY    25  10  51 N12       30.40R WCI  14
PLATTSMOUTH    CLOUDY    26  13  59 N10       30.39R WCI  15
WAHOO          FAIR      21  12  70 CALM      30.40F
$$




USA.gov is the U.S. government's official web portal to all federal, state and local government web resources and services.